This is the latest recevied weather packets stored in our database for station/object KF0JHJ. If no packets are shown the sender has not sent any weather packets the latest 10 day(s).
| Time | Temp. | Humidity | Pressure | Rain* | Wind** | Luminosity | Snow |
|---|---|---|---|---|---|---|---|
| 1777417690 | 11.67° C | 53% | 1013.2 hPa | - | - | 83 W/m² | - |
| 1777417385 | 11.67° C | 54% | 1013.4 hPa | - | - | 76 W/m² | - |
| 1777417082 | 11.67° C | 52% | 1013.2 hPa | - | - | 67 W/m² | - |
| 1777416777 | 12.22° C | 53% | 1013.2 hPa | - | - | 155 W/m² | - |
| 1777416473 | 12.22° C | 51% | 1013.4 hPa | - | - | 289 W/m² | - |
| 1777416170 | 12.78° C | 51% | 1013.4 hPa | - | - | 210 W/m² | - |
| 1777415864 | 12.78° C | 51% | 1013.4 hPa | - | - | 203 W/m² | - |
| 1777415559 | 12.78° C | 50% | 1013.5 hPa | - | - | 234 W/m² | - |
| 1777415255 | 12.78° C | 51% | 1013.2 hPa | - | - | 307 W/m² | - |
| 1777414951 | 12.78° C | 51% | 1013.4 hPa | - | - | 372 W/m² | - |
| 1777414650 | 12.78° C | 52% | 1013.2 hPa | - | - | 341 W/m² | - |
| 1777414345 | 12.78° C | 51% | 1013.2 hPa | - | - | 363 W/m² | - |
| 1777414041 | 12.78° C | 52% | 1013.4 hPa | - | - | 357 W/m² | - |
| 1777413741 | 12.78° C | 50% | 1013.2 hPa | - | - | 276 W/m² | - |
| 1777413437 | 13.33° C | 51% | 1013.5 hPa | - | - | 438 W/m² | - |
| 1777413134 | 12.78° C | 51% | 1013.2 hPa | - | - | 388 W/m² | - |
| 1777412828 | 12.78° C | 51% | 1013.4 hPa | - | - | 313 W/m² | - |
| 1777412528 | 12.22° C | 49% | 1013.6 hPa | - | - | 314 W/m² | - |
| 1777412225 | 12.78° C | 53% | 1013.6 hPa | - | - | 410 W/m² | - |
| 1777411921 | 12.78° C | 55% | 1013.6 hPa | - | - | 378 W/m² | - |
| 1777411620 | 12.22° C | 54% | 1013.6 hPa | - | - | 395 W/m² | - |
| 1777411316 | 12.22° C | 57% | 1013.5 hPa | - | - | 343 W/m² | - |
| 1777411015 | 12.22° C | 53% | 1013.8 hPa | - | - | 262 W/m² | - |
| 1777410715 | 12.22° C | 52% | 1013.6 hPa | - | - | 336 W/m² | - |
| 1777410410 | 12.22° C | 53% | 1013.6 hPa | - | - | 292 W/m² | - |
* Rain since midnight (hover to see other rain measurements)
** Current wind speed in m/s (hover to see current wind gust speed)